Back to catalog

FENGYUN 1C DEB

AliveSSO
NORAD 30619·DEBRIS·🇨🇳 China

Launched May 10, 1999 from Taiyuan Satellite Launch Center

Loading…

Next Passes (next 24 hours)

TLE

FreshSource: Space-Track

Epoch: Sep 12, 2026, 12:00 UTC

1 30619U 99025ANA 26255.50038001  .00000583  00000-0  14933-3 0  9990
2 30619  98.2772 275.4354 0212171 311.0598  47.2427 14.41732897 28829

Track FENGYUN 1C DEB in real time with AllMySat

Download on the App Store